WetterOnline ( https://www.wetteronline.de )

Wetter aktuell Plön

Aktuelles Wetter: Dörnick (28m)

6-stündlich | Neueste Meldungen
Ortszeit Temperatur Wetter
Sa, 25.05. 14:00 18.5° C bewölkt
Sa, 25.05. 8:00 15.2° C bedeckt
Sa, 25.05. 2:00 13.0° C leicht bewölkt
Fr, 24.05. 20:00 18.0° C wolkig
Fr, 24.05. 14:00 19.8° C leicht bewölkt
Fr, 24.05. 8:00 15.7° C Nebel
Fr, 24.05. 2:00 11.2° C wolkenlos
Do, 23.05. 20:00 17.6° C wolkig
Ortszeit Temperatur Wetter
Sa, 25.05. 16:30 18.0° C bewölkt
Sa, 25.05. 16:20 18.0° C bewölkt
Sa, 25.05. 16:10 17.8° C bedeckt
Sa, 25.05. 16:00 17.6° C bedeckt
Sa, 25.05. 15:50 17.6° C bedeckt
Sa, 25.05. 15:40 18.1° C bedeckt
Sa, 25.05. 15:30 17.7° C bedeckt
Sa, 25.05. 15:00 17.7° C bewölkt
Sa, 25.05. 14:30 18.1° C bewölkt
Sa, 25.05. 14:00 18.5° C bewölkt
Sa, 25.05. 13:30 18.8° C bewölkt
Ortszeit Relative Feuchte Sichtweite
Sa, 25.05. 14:00 76% 40 km
Sa, 25.05. 8:00 84% 17 km
Sa, 25.05. 2:00 89% 25 km
Fr, 24.05. 20:00 75% 30 km
Fr, 24.05. 14:00 68% 27 km
Fr, 24.05. 8:00 86% 13 km
Fr, 24.05. 2:00 98% 5.0 km
Do, 23.05. 20:00 71% 30 km
Ortszeit Relative Feuchte Sichtweite
Sa, 25.05. 16:30 79% 30 km
Sa, 25.05. 16:20 79% -
Sa, 25.05. 16:10 79% -
Sa, 25.05. 16:00 77% 35 km
Sa, 25.05. 15:50 77% -
Sa, 25.05. 15:40 78% -
Sa, 25.05. 15:30 77% 29 km
Sa, 25.05. 15:00 77% 40 km
Sa, 25.05. 14:30 76% 35 km
Sa, 25.05. 14:00 76% 40 km
Sa, 25.05. 13:30 73% 30 km
Ortszeit Niederschlagsmenge Niederschlagsart
Sa, 25.05. 14:00 0.0 l/m2 in 6 Std. -
Sa, 25.05. 8:00 0.0 l/m2 in 12 Std. -
Sa, 25.05. 2:00 0.0 l/m2 in 6 Std. -
Fr, 24.05. 20:00 0.0 l/m2 in 12 Std. -
Fr, 24.05. 14:00 0.0 l/m2 in 6 Std. -
Fr, 24.05. 8:00 0.0 l/m2 in 12 Std. -
Fr, 24.05. 2:00 0.0 l/m2 in 6 Std. -
Do, 23.05. 20:00 1 l/m2 in 12 Std. -
Ortszeit Niederschlagsmenge Niederschlagsart
Sa, 25.05. 16:30 0.0 l/m2 in 30 Min -
Sa, 25.05. 16:20 keine Meldung -
Sa, 25.05. 16:10 keine Meldung -
Sa, 25.05. 16:00 0.0 l/m2 in 1 Std. -
Sa, 25.05. 15:50 keine Meldung -
Sa, 25.05. 15:40 keine Meldung -
Sa, 25.05. 15:30 0.0 l/m2 in 30 Min -
Sa, 25.05. 15:00 0.0 l/m2 in 1 Std. -
Sa, 25.05. 14:30 0.0 l/m2 in 30 Min -
Sa, 25.05. 14:00 0.0 l/m2 in 1 Std. -
Sa, 25.05. 13:30 0.0 l/m2 in 30 Min -
Ortszeit Stärke Spitze Richtung
km/h Bft. km/h Grad Sektor
Sa, 25.05. 14:00 11 2 25 20° N
Sa, 25.05. 8:00 9 2 19 50° NO
Sa, 25.05. 2:00 4 1 25 20° N
Fr, 24.05. 20:00 11 2 32 50° NO
Fr, 24.05. 14:00 14 3 25 50° NO
Fr, 24.05. 8:00 4 1 7 110° O
Fr, 24.05. 2:00 0 0 14 - -
Do, 23.05. 20:00 7 2 29 280° W
Ortszeit Stärke Spitze Richtung
km/h Bft. km/h Grad Sektor
Sa, 25.05. 16:30 7 2 14 50° NO
Sa, 25.05. 16:20 7 2 - 50° NO
Sa, 25.05. 16:10 9 2 - 30° NO
Sa, 25.05. 16:00 7 2 19 20° N
Sa, 25.05. 15:50 7 2 - 20° N
Sa, 25.05. 15:40 9 2 - 20° N
Sa, 25.05. 15:30 11 2 19 20° N
Sa, 25.05. 15:00 13 3 22 40° NO
Sa, 25.05. 14:30 13 3 19 40° NO
Sa, 25.05. 14:00 11 2 22 20° N
Sa, 25.05. 13:30 9 2 19 20° N
Ortszeit Untergrenze Bedeckung Gattung
total tief tief mittel hoch
Sa, 25.05. 14:00 540 m 7/8 7/8 - - -
Sa, 25.05. 8:00 3300 m 8/8 8/8 - - -
Sa, 25.05. 2:00 8400 m 6/8 0/8 - - -
Fr, 24.05. 20:00 690 m 7/8 3/8 - - -
Fr, 24.05. 14:00 780 m 4/8 1/8 - - -
Fr, 24.05. 8:00 - 0/8 0/8 - - -
Fr, 24.05. 2:00 - 0/8 0/8 - - -
Do, 23.05. 20:00 2100 m 7/8 5/8 - - -
Ortszeit Bedeckungsgrad in Achtel und Wolkenuntergrenze
Sa, 25.05. 16:30 4(510m) 6(720m) 7(870m)
Sa, 25.05. 16:20 4(510m) 6(720m) 7(870m)
Sa, 25.05. 16:10 8
Sa, 25.05. 16:00 6(540m) 6(870m) 8(1500m)
Sa, 25.05. 15:50 6(540m) 6(870m) 8(1500m)
Sa, 25.05. 15:40 8
Sa, 25.05. 15:30 4(1170m) 8(1500m)
Sa, 25.05. 15:00 2(1140m) 6(1500m) 7(2100m)
Sa, 25.05. 14:30 2(630m) 7(2700m) 8(3000m)
Sa, 25.05. 14:00 1(540m) 7(1500m) 7(2100m)
Sa, 25.05. 13:30 7(1800m) 8(3300m) 8(3900m)
Ortszeit Luftdruck NN (hPa) Tendenz (hPa in 3 Std.)
Sa, 25.05. 14:00 1018 - 0,1
Sa, 25.05. 8:00 1018 - 0,5
Sa, 25.05. 2:00 1020 - 0,7
Fr, 24.05. 20:00 1020 - 0,1
Fr, 24.05. 14:00 1021 - 0,1
Fr, 24.05. 8:00 1020 + 0,8
Fr, 24.05. 2:00 1019 + 1,2
Do, 23.05. 20:00 1016 + 1,1
Ortszeit Luftdruck NN (hPa) Tendenz (hPa in 3 Std.)
Sa, 25.05. 16:30 1018 - 0,2
Sa, 25.05. 16:20 1018 keine Meldung
Sa, 25.05. 16:10 1018 keine Meldung
Sa, 25.05. 16:00 1018 - 0,3
Sa, 25.05. 15:50 1018 keine Meldung
Sa, 25.05. 15:40 1018 keine Meldung
Sa, 25.05. 15:30 1018 - 0,2
Sa, 25.05. 15:00 1018 - 0,1
Sa, 25.05. 14:30 1018 - 0,1
Sa, 25.05. 14:00 1018 - 0,1
Sa, 25.05. 13:30 1018 0,0
Ortszeit Schneehöhe (cm)
Sa, 25.05. 14:00 0
Sa, 25.05. 8:00 0
Sa, 25.05. 2:00 0
Fr, 24.05. 20:00 0
Fr, 24.05. 14:00 0
Fr, 24.05. 8:00 0
Fr, 24.05. 2:00 0
Do, 23.05. 20:00 0
Ortszeit Schneehöhe (cm)
Sa, 25.05. 16:30 0
Sa, 25.05. 16:20 0
Sa, 25.05. 16:10 -
Sa, 25.05. 16:00 0
Sa, 25.05. 15:50 0
Sa, 25.05. 15:40 -
Sa, 25.05. 15:30 0
Sa, 25.05. 15:00 0
Sa, 25.05. 14:30 0
Sa, 25.05. 14:00 0
Sa, 25.05. 13:30 0
Link zu dieser Seite / Seite empfehlen

Das Wetter in ...